Year,Month,Day,Hour,Minute,Value (Times are PST for temperature in C)
2015,11,28,00,00,-1.30
2015,11,28,00,01,-1.30
2015,11,28,00,02,-1.30
2015,11,28,00,03,-1.30
2015,11,28,00,04,-1.30
2015,11,28,00,05,-1.20
2015,11,28,00,06,-1.20
2015,11,28,00,07,-1.20
2015,11,28,00,08,-1.20
2015,11,28,00,09,-1.20
2015,11,28,00,10,-1.10
2015,11,28,00,11,-1.10
2015,11,28,00,12,-1.00
2015,11,28,00,13,-1.00
2015,11,28,00,14,-0.90
2015,11,28,00,15,-0.90
2015,11,28,00,16,-0.90
2015,11,28,00,17,-0.80
2015,11,28,00,18,-0.80
2015,11,28,00,19,-0.80
2015,11,28,00,20,-0.80
2015,11,28,00,21,-0.80
2015,11,28,00,22,-0.80
2015,11,28,00,23,-0.80
2015,11,28,00,24,-0.80
2015,11,28,00,25,-0.80
2015,11,28,00,26,-0.80
2015,11,28,00,27,-0.80
2015,11,28,00,28,-0.80
2015,11,28,00,29,-0.80
2015,11,28,00,30,-0.80
2015,11,28,00,31,-0.70
2015,11,28,00,32,-0.70
2015,11,28,00,33,-0.70
2015,11,28,00,34,-0.70
2015,11,28,00,35,-0.70
2015,11,28,00,36,-0.70
2015,11,28,00,37,-0.70
2015,11,28,00,38,-0.60
2015,11,28,00,39,-0.60
2015,11,28,00,40,-0.60
2015,11,28,00,41,-0.60
2015,11,28,00,42,-0.60
2015,11,28,00,43,-0.70
2015,11,28,00,44,-0.70
2015,11,28,00,45,-0.80
2015,11,28,00,46,-0.80
2015,11,28,00,47,-0.90
2015,11,28,00,48,-0.90
2015,11,28,00,49,-0.90
2015,11,28,00,50,-1.00
2015,11,28,00,51,-1.00
2015,11,28,00,52,-1.10
2015,11,28,00,53,-1.10
2015,11,28,00,54,-1.10
2015,11,28,00,55,-1.20
2015,11,28,00,56,-1.20
2015,11,28,00,57,-1.20
2015,11,28,00,58,-1.20
2015,11,28,00,59,-1.20
2015,11,28,01,00,-1.30
2015,11,28,01,01,-1.30
2015,11,28,01,02,-1.30
2015,11,28,01,03,-1.40
2015,11,28,01,04,-1.50
2015,11,28,01,05,-1.50
2015,11,28,01,06,-1.60
2015,11,28,01,07,-1.70
2015,11,28,01,08,-1.70
2015,11,28,01,09,-1.70
2015,11,28,01,10,-1.70
2015,11,28,01,11,-1.70
2015,11,28,01,12,-1.80
2015,11,28,01,13,-1.80
2015,11,28,01,14,-1.80
2015,11,28,01,15,-1.80
2015,11,28,01,16,-1.80
2015,11,28,01,17,-1.70
2015,11,28,01,18,-1.70
2015,11,28,01,19,-1.70
2015,11,28,01,20,-1.70
2015,11,28,01,21,-1.70
2015,11,28,01,22,-1.70
2015,11,28,01,23,-1.80
2015,11,28,01,24,-1.80
2015,11,28,01,25,-1.80
2015,11,28,01,26,-1.80
2015,11,28,01,27,-1.90
2015,11,28,01,28,-2.00
2015,11,28,01,29,-2.10
2015,11,28,01,30,-2.20
2015,11,28,01,31,-2.30
2015,11,28,01,32,-2.30
2015,11,28,01,33,-2.30
2015,11,28,01,34,-2.30
2015,11,28,01,35,-2.30
2015,11,28,01,36,-2.20
2015,11,28,01,37,-2.20
2015,11,28,01,38,-2.10
2015,11,28,01,39,-2.10
2015,11,28,01,40,-2.00
2015,11,28,01,41,-2.00
2015,11,28,01,42,-1.90
2015,11,28,01,43,-1.90
2015,11,28,01,44,-1.80
2015,11,28,01,45,-1.80
2015,11,28,01,46,-1.80
2015,11,28,01,47,-1.80
2015,11,28,01,48,-1.80
2015,11,28,01,49,-1.80
2015,11,28,01,50,-1.80
2015,11,28,01,51,-1.80
2015,11,28,01,52,-1.80
2015,11,28,01,53,-1.80
2015,11,28,01,54,-1.80
2015,11,28,01,55,-1.80
2015,11,28,01,56,-1.80
2015,11,28,01,57,-1.80
2015,11,28,01,58,-1.80
2015,11,28,01,59,-1.80
2015,11,28,02,00,-1.90
2015,11,28,02,01,-1.90
2015,11,28,02,02,-1.90
2015,11,28,02,03,-1.90
2015,11,28,02,04,-1.90
2015,11,28,02,05,-1.80
2015,11,28,02,06,-1.80
2015,11,28,02,07,-1.80
2015,11,28,02,08,-1.80
2015,11,28,02,09,-1.80
2015,11,28,02,10,-1.80
2015,11,28,02,11,-1.80
2015,11,28,02,12,-1.80
2015,11,28,02,13,-1.80
2015,11,28,02,14,-1.80
2015,11,28,02,15,-1.80
2015,11,28,02,16,-1.80
2015,11,28,02,17,-1.80
2015,11,28,02,18,-1.80
2015,11,28,02,19,-1.80
2015,11,28,02,20,-1.70
2015,11,28,02,21,-1.70
2015,11,28,02,22,-1.70
2015,11,28,02,23,-1.70
2015,11,28,02,24,-1.70
2015,11,28,02,25,-1.80
2015,11,28,02,26,-1.80
2015,11,28,02,27,-1.90
2015,11,28,02,28,-1.90
2015,11,28,02,29,-1.90
2015,11,28,02,30,-2.00
2015,11,28,02,31,-2.00
2015,11,28,02,32,-2.10
2015,11,28,02,33,-2.20
2015,11,28,02,34,-2.30
2015,11,28,02,35,-2.30
2015,11,28,02,36,-2.20
2015,11,28,02,37,-2.20
2015,11,28,02,38,-2.10
2015,11,28,02,39,-2.10
2015,11,28,02,40,-2.10
2015,11,28,02,41,-2.00
2015,11,28,02,42,-2.00
2015,11,28,02,43,-2.00
2015,11,28,02,44,-1.90
2015,11,28,02,45,-1.80
2015,11,28,02,46,-1.80
2015,11,28,02,47,-1.70
2015,11,28,02,48,-1.60
2015,11,28,02,49,-1.60
2015,11,28,02,50,-1.50
2015,11,28,02,51,-1.50
2015,11,28,02,52,-1.60
2015,11,28,02,53,-1.60
2015,11,28,02,54,-1.60
2015,11,28,02,55,-1.70
2015,11,28,02,56,-1.70
2015,11,28,02,57,-1.70
2015,11,28,02,58,-1.80
2015,11,28,02,59,-1.80
2015,11,28,03,00,-1.80
2015,11,28,03,01,-1.80
2015,11,28,03,02,-1.90
2015,11,28,03,03,-1.90
2015,11,28,03,04,-1.90
2015,11,28,03,05,-2.00
2015,11,28,03,06,-2.00
2015,11,28,03,07,-2.10
2015,11,28,03,08,-2.10
2015,11,28,03,09,-2.10
2015,11,28,03,10,-2.10
2015,11,28,03,11,-2.10
2015,11,28,03,12,-2.20
2015,11,28,03,13,-2.10
2015,11,28,03,14,-2.10
2015,11,28,03,15,-2.10
2015,11,28,03,16,-2.10
2015,11,28,03,17,-2.10
2015,11,28,03,18,-2.20
2015,11,28,03,19,-2.20
2015,11,28,03,20,-2.20
2015,11,28,03,21,-2.20
2015,11,28,03,22,-2.30
2015,11,28,03,23,-2.30
2015,11,28,03,24,-2.30
2015,11,28,03,25,-2.30
2015,11,28,03,26,-2.30
2015,11,28,03,27,-2.30
2015,11,28,03,28,-2.40
2015,11,28,03,29,-2.40
2015,11,28,03,30,-2.40
2015,11,28,03,31,-2.40
2015,11,28,03,32,-2.50
2015,11,28,03,33,-2.50
2015,11,28,03,34,-2.50
2015,11,28,03,35,-2.50
2015,11,28,03,36,-2.50
2015,11,28,03,37,-2.50
2015,11,28,03,38,-2.50
2015,11,28,03,39,-2.50
2015,11,28,03,40,-2.50
2015,11,28,03,41,-2.50
2015,11,28,03,42,-2.50
2015,11,28,03,43,-2.50
2015,11,28,03,44,-2.40
2015,11,28,03,45,-2.40
2015,11,28,03,46,-2.50
2015,11,28,03,47,-2.50
2015,11,28,03,48,-2.50
2015,11,28,03,49,-2.60
2015,11,28,03,50,-2.60
2015,11,28,03,51,-2.60
2015,11,28,03,52,-2.60
2015,11,28,03,53,-2.60
2015,11,28,03,54,-2.60
2015,11,28,03,55,-2.60
2015,11,28,03,56,-2.60
2015,11,28,03,57,-2.60
2015,11,28,03,58,-2.70
2015,11,28,03,59,-2.70
2015,11,28,04,00,-2.70
2015,11,28,04,01,-2.70
2015,11,28,04,02,-2.80
2015,11,28,04,03,-2.80
2015,11,28,04,05,-2.80
2015,11,28,04,06,-2.80
2015,11,28,04,07,-2.80
2015,11,28,04,08,-2.90
2015,11,28,04,09,-2.90
2015,11,28,04,10,-2.90
2015,11,28,04,11,-2.90
2015,11,28,04,12,-2.90
2015,11,28,04,13,-2.90
2015,11,28,04,14,-2.80
2015,11,28,04,15,-2.90
2015,11,28,04,16,-2.90
2015,11,28,04,17,-2.90
2015,11,28,04,18,-2.80
2015,11,28,04,19,-2.80
2015,11,28,04,20,-2.80
2015,11,28,04,21,-2.80
2015,11,28,04,22,-2.80
2015,11,28,04,23,-2.80
2015,11,28,04,24,-2.80
2015,11,28,04,25,-2.80
2015,11,28,04,26,-2.80
2015,11,28,04,27,-2.80
2015,11,28,04,28,-2.80
2015,11,28,04,29,-2.80
2015,11,28,04,30,-2.80
2015,11,28,04,31,-2.90
2015,11,28,04,32,-2.90
2015,11,28,04,33,-2.90
2015,11,28,04,34,-2.90
2015,11,28,04,35,-2.90
2015,11,28,04,36,-2.90
2015,11,28,04,37,-2.90
2015,11,28,04,38,-2.90
2015,11,28,04,39,-2.90
2015,11,28,04,40,-2.90
2015,11,28,04,41,-2.90
2015,11,28,04,42,-2.90
2015,11,28,04,43,-2.90
2015,11,28,04,44,-2.90
2015,11,28,04,45,-2.90
2015,11,28,04,46,-2.90
2015,11,28,04,47,-3.00
2015,11,28,04,48,-2.90
2015,11,28,04,49,-2.90
2015,11,28,04,50,-2.90
2015,11,28,04,51,-2.90
2015,11,28,04,52,-2.90
2015,11,28,04,53,-2.90
2015,11,28,04,54,-2.90
2015,11,28,04,55,-2.90
2015,11,28,04,56,-2.90
2015,11,28,04,57,-3.00
2015,11,28,04,58,-3.00
2015,11,28,04,59,-3.10
2015,11,28,05,00,-3.20
2015,11,28,05,01,-3.20
2015,11,28,05,02,-3.20
2015,11,28,05,03,-3.20
2015,11,28,05,04,-3.10
2015,11,28,05,05,-3.10
2015,11,28,05,06,-3.00
2015,11,28,05,07,-3.00
2015,11,28,05,08,-3.00
2015,11,28,05,09,-2.90
2015,11,28,05,10,-2.90
2015,11,28,05,11,-2.90
2015,11,28,05,12,-2.90
2015,11,28,05,13,-2.90
2015,11,28,05,14,-2.90
2015,11,28,05,15,-2.80
2015,11,28,05,16,-2.80
2015,11,28,05,17,-2.70
2015,11,28,05,18,-2.70
2015,11,28,05,19,-2.70
2015,11,28,05,20,-2.60
2015,11,28,05,21,-2.60
2015,11,28,05,22,-2.70
2015,11,28,05,23,-2.70
2015,11,28,05,24,-2.80
2015,11,28,05,25,-2.90
2015,11,28,05,26,-2.90
2015,11,28,05,27,-2.90
2015,11,28,05,28,-2.90
2015,11,28,05,29,-2.90
2015,11,28,05,30,-2.90
2015,11,28,05,31,-2.90
2015,11,28,05,32,-3.00
2015,11,28,05,33,-3.10
2015,11,28,05,34,-3.20
2015,11,28,05,35,-3.40
2015,11,28,05,36,-3.50
2015,11,28,05,37,-3.50
2015,11,28,05,38,-3.60
2015,11,28,05,39,-3.60
2015,11,28,05,40,-3.60
2015,11,28,05,41,-3.60
2015,11,28,05,42,-3.60
2015,11,28,05,43,-3.60
2015,11,28,05,44,-3.60
2015,11,28,05,45,-3.70
2015,11,28,05,46,-3.60
2015,11,28,05,47,-3.60
2015,11,28,05,48,-3.60
2015,11,28,05,49,-3.60
2015,11,28,05,50,-3.50
2015,11,28,05,51,-3.50
2015,11,28,05,52,-3.50
2015,11,28,05,53,-3.50
2015,11,28,05,54,-3.50
2015,11,28,05,55,-3.50
2015,11,28,05,56,-3.50
2015,11,28,05,57,-3.50
2015,11,28,05,58,-3.50
2015,11,28,05,59,-3.40
2015,11,28,06,00,-3.40
2015,11,28,06,01,-3.40
2015,11,28,06,02,-3.40
2015,11,28,06,03,-3.40
2015,11,28,06,04,-3.40
2015,11,28,06,05,-3.40
2015,11,28,06,06,-3.40
2015,11,28,06,07,-3.40
2015,11,28,06,08,-3.40
2015,11,28,06,09,-3.30
2015,11,28,06,10,-3.30
2015,11,28,06,11,-3.20
2015,11,28,06,12,-3.20
2015,11,28,06,13,-3.10
2015,11,28,06,14,-3.10
2015,11,28,06,15,-3.00
2015,11,28,06,16,-3.00
2015,11,28,06,17,-3.00
2015,11,28,06,18,-3.00
2015,11,28,06,19,-3.00
2015,11,28,06,20,-3.00
2015,11,28,06,21,-3.00
2015,11,28,06,22,-3.10
2015,11,28,06,23,-3.10
2015,11,28,06,24,-3.10
2015,11,28,06,25,-3.20
2015,11,28,06,26,-3.20
2015,11,28,06,27,-3.20
2015,11,28,06,28,-3.20
2015,11,28,06,29,-3.20
2015,11,28,06,30,-3.20
2015,11,28,06,31,-3.20
2015,11,28,06,32,-3.20
2015,11,28,06,33,-3.20
2015,11,28,06,34,-3.20
2015,11,28,06,35,-3.20
2015,11,28,06,36,-3.20
2015,11,28,06,37,-3.20
2015,11,28,06,38,-3.30
2015,11,28,06,39,-3.30
2015,11,28,06,40,-3.30
2015,11,28,06,41,-3.40
2015,11,28,06,42,-3.40
2015,11,28,06,43,-3.40
2015,11,28,06,44,-3.40
2015,11,28,06,45,-3.40
2015,11,28,06,46,-3.40
2015,11,28,06,47,-3.40
2015,11,28,06,48,-3.40
2015,11,28,06,49,-3.50
2015,11,28,06,50,-3.50
2015,11,28,06,51,-3.40
2015,11,28,06,52,-3.40
2015,11,28,06,53,-3.40
2015,11,28,06,54,-3.40
2015,11,28,06,55,-3.40
2015,11,28,06,56,-3.40
2015,11,28,06,57,-3.50
2015,11,28,06,58,-3.50
2015,11,28,06,59,-3.60
2015,11,28,07,00,-3.60
2015,11,28,07,01,-3.60
2015,11,28,07,02,-3.60
2015,11,28,07,03,-3.50
2015,11,28,07,04,-3.50
2015,11,28,07,05,-3.50
2015,11,28,07,06,-3.40
2015,11,28,07,07,-3.40
2015,11,28,07,08,-3.40
2015,11,28,07,09,-3.40
2015,11,28,07,10,-3.30
2015,11,28,07,11,-3.30
2015,11,28,07,12,-3.30
2015,11,28,07,13,-3.20
2015,11,28,07,14,-3.20
2015,11,28,07,15,-3.20
2015,11,28,07,16,-3.10
2015,11,28,07,17,-3.10
2015,11,28,07,18,-3.10
2015,11,28,07,19,-3.10
2015,11,28,07,20,-3.10
2015,11,28,07,21,-3.10
2015,11,28,07,22,-3.10
2015,11,28,07,23,-3.10
2015,11,28,07,24,-3.20
2015,11,28,07,25,-3.20
2015,11,28,07,26,-3.20
2015,11,28,07,27,-3.30
2015,11,28,07,28,-3.30
2015,11,28,07,29,-3.30
2015,11,28,07,30,-3.30
2015,11,28,07,31,-3.30
2015,11,28,07,32,-3.30
2015,11,28,07,33,-3.30
2015,11,28,07,34,-3.30
2015,11,28,07,35,-3.30
2015,11,28,07,36,-3.40
2015,11,28,07,37,-3.40
2015,11,28,07,38,-3.40
2015,11,28,07,39,-3.40
2015,11,28,07,40,-3.40
2015,11,28,07,41,-3.50
2015,11,28,07,42,-3.50
2015,11,28,07,43,-3.50
2015,11,28,07,44,-3.50
2015,11,28,07,45,-3.50
2015,11,28,07,46,-3.50
2015,11,28,07,47,-3.50
2015,11,28,07,48,-3.50
2015,11,28,07,49,-3.50
2015,11,28,07,50,-3.50
2015,11,28,07,51,-3.50
2015,11,28,07,52,-3.50
2015,11,28,07,53,-3.50
2015,11,28,07,54,-3.40
2015,11,28,07,55,-3.40
2015,11,28,07,56,-3.40
2015,11,28,07,57,-3.40
2015,11,28,07,58,-3.40
2015,11,28,07,59,-3.40
2015,11,28,08,00,-3.40
2015,11,28,08,01,-3.40
2015,11,28,08,02,-3.30
2015,11,28,08,03,-3.30
2015,11,28,08,04,-3.20
2015,11,28,08,05,-3.20
2015,11,28,08,06,-3.20
2015,11,28,08,07,-3.20
2015,11,28,08,08,-3.20
2015,11,28,08,09,-3.10
2015,11,28,08,10,-3.10
2015,11,28,08,11,-3.10
2015,11,28,08,12,-3.10
2015,11,28,08,13,-3.10
2015,11,28,08,14,-3.00
2015,11,28,08,15,-3.00
2015,11,28,08,16,-3.00
2015,11,28,08,17,-2.90
2015,11,28,08,18,-2.90
2015,11,28,08,19,-2.90
2015,11,28,08,20,-2.80
2015,11,28,08,21,-2.80
2015,11,28,08,22,-2.80
2015,11,28,08,23,-2.80
2015,11,28,08,24,-2.70
2015,11,28,08,25,-2.70
2015,11,28,08,26,-2.70
2015,11,28,08,27,-2.70
2015,11,28,08,28,-2.70
2015,11,28,08,29,-2.70
2015,11,28,08,30,-2.60
2015,11,28,08,31,-2.60
2015,11,28,08,32,-2.60
2015,11,28,08,33,-2.60
2015,11,28,08,34,-2.50
2015,11,28,08,35,-2.50
2015,11,28,08,36,-2.50
2015,11,28,08,37,-2.50
2015,11,28,08,38,-2.40
2015,11,28,08,39,-2.40
2015,11,28,08,40,-2.40
2015,11,28,08,41,-2.40
2015,11,28,08,42,-2.40
2015,11,28,08,43,-2.30
2015,11,28,08,44,-2.30
2015,11,28,08,45,-2.30
2015,11,28,08,46,-2.30
2015,11,28,08,47,-2.30
2015,11,28,08,48,-2.20
2015,11,28,08,49,-2.20
2015,11,28,08,50,-2.20
2015,11,28,08,51,-2.20
2015,11,28,08,52,-2.20
2015,11,28,08,53,-2.20
2015,11,28,08,54,-2.10
2015,11,28,08,55,-2.10
2015,11,28,08,56,-2.10
2015,11,28,08,57,-2.10
2015,11,28,08,58,-2.10
2015,11,28,08,59,-2.10
2015,11,28,09,00,-2.00
2015,11,28,09,01,-2.00
2015,11,28,09,02,-2.00
2015,11,28,09,03,-2.00
2015,11,28,09,04,-2.00
2015,11,28,09,05,-2.00
2015,11,28,09,06,-2.00
2015,11,28,09,07,-2.00
2015,11,28,09,08,-2.00
2015,11,28,09,09,-2.00
2015,11,28,09,10,-2.00
2015,11,28,09,11,-2.00
2015,11,28,09,12,-2.00
2015,11,28,09,13,-2.00
2015,11,28,09,14,-2.00
2015,11,28,09,15,-2.00
2015,11,28,09,16,-2.00
2015,11,28,09,17,-2.00
2015,11,28,09,18,-2.00
2015,11,28,09,19,-2.00
2015,11,28,09,20,-2.00
2015,11,28,09,21,-1.90
2015,11,28,09,22,-1.90
2015,11,28,09,23,-1.90
2015,11,28,09,24,-1.90
2015,11,28,09,25,-1.90
2015,11,28,09,26,-1.90
2015,11,28,09,27,-1.80
2015,11,28,09,28,-1.80
2015,11,28,09,29,-1.80
2015,11,28,09,30,-1.80
2015,11,28,09,31,-1.80
2015,11,28,09,32,-1.70
2015,11,28,09,33,-1.70
2015,11,28,09,34,-1.70
2015,11,28,09,35,-1.70
2015,11,28,09,36,-1.70
2015,11,28,09,37,-1.70
2015,11,28,09,38,-1.70
2015,11,28,09,39,-1.70
2015,11,28,09,40,-1.70
2015,11,28,09,41,-1.70
2015,11,28,09,42,-1.70
2015,11,28,09,43,-1.70
2015,11,28,09,44,-1.70
2015,11,28,09,45,-1.70
2015,11,28,09,46,-1.60
2015,11,28,09,47,-1.60
2015,11,28,09,48,-1.50
2015,11,28,09,49,-1.50
2015,11,28,09,50,-1.40
2015,11,28,09,51,-1.30
2015,11,28,09,52,-1.30
2015,11,28,09,53,-1.20
2015,11,28,09,54,-1.20
2015,11,28,09,55,-1.10
2015,11,28,09,56,-1.10
2015,11,28,09,57,-1.10
2015,11,28,09,58,-1.10
2015,11,28,09,59,-1.10
2015,11,28,10,00,-1.00
2015,11,28,10,01,-1.00
2015,11,28,10,02,-1.00
2015,11,28,10,03,-1.00
2015,11,28,10,04,-1.00
2015,11,28,10,05,-1.00
2015,11,28,10,06,-1.00
2015,11,28,10,07,-1.00
2015,11,28,10,08,-1.00
2015,11,28,10,09,-1.00
2015,11,28,10,10,-1.00
2015,11,28,10,11,-1.00
2015,11,28,10,12,-1.00
2015,11,28,10,13,-1.00
2015,11,28,10,14,-1.00
2015,11,28,10,15,-1.00
2015,11,28,10,16,-1.00
2015,11,28,10,17,-1.00
2015,11,28,10,18,-1.00
2015,11,28,10,19,-1.00
2015,11,28,10,20,-0.90
2015,11,28,10,21,-0.90
2015,11,28,10,22,-0.90
2015,11,28,10,23,-0.90
2015,11,28,10,24,-0.80
2015,11,28,10,25,-0.80
2015,11,28,10,26,-0.80
2015,11,28,10,27,-0.70
2015,11,28,10,28,-0.70
2015,11,28,10,29,-0.70
2015,11,28,10,30,-0.70
2015,11,28,10,31,-0.60
2015,11,28,10,32,-0.60
2015,11,28,10,33,-0.60
2015,11,28,10,34,-0.60
2015,11,28,10,35,-0.60
2015,11,28,10,36,-0.60
2015,11,28,10,37,-0.60
2015,11,28,10,38,-0.60
2015,11,28,10,39,-0.50
2015,11,28,10,40,-0.50
2015,11,28,10,41,-0.40
2015,11,28,10,42,-0.40
2015,11,28,10,43,-0.40
2015,11,28,10,44,-0.40
2015,11,28,10,45,-0.40
2015,11,28,10,46,-0.30
2015,11,28,10,47,-0.30
2015,11,28,10,48,-0.30
2015,11,28,10,49,-0.30
2015,11,28,10,50,-0.20
2015,11,28,10,51,-0.20
2015,11,28,10,52,-0.20
2015,11,28,10,53,-0.10
2015,11,28,10,54,-0.10
2015,11,28,10,55,-0.10
2015,11,28,10,56,-0.10
2015,11,28,10,57,-0.10
2015,11,28,10,58,0.00
2015,11,28,10,59,0.00
2015,11,28,11,00,0.00
2015,11,28,11,01,0.00
2015,11,28,11,02,0.00
2015,11,28,11,03,0.00
2015,11,28,11,04,0.10
2015,11,28,11,05,0.10
2015,11,28,11,06,0.10
2015,11,28,11,07,0.10
2015,11,28,11,08,0.10
2015,11,28,11,09,0.10
2015,11,28,11,10,0.10
2015,11,28,11,11,0.10
2015,11,28,11,12,0.10
2015,11,28,11,13,0.10
2015,11,28,11,14,0.20
2015,11,28,11,15,0.10
2015,11,28,11,16,0.20
2015,11,28,11,17,0.20
2015,11,28,11,18,0.20
2015,11,28,11,19,0.20
2015,11,28,11,20,0.30
2015,11,28,11,21,0.30
2015,11,28,11,22,0.30
2015,11,28,11,23,0.30
2015,11,28,11,24,0.30
2015,11,28,11,25,0.30
2015,11,28,11,26,0.30
2015,11,28,11,27,0.30
2015,11,28,11,28,0.30
2015,11,28,11,29,0.30
2015,11,28,11,30,0.20
2015,11,28,11,31,0.20
2015,11,28,11,32,0.20
2015,11,28,11,33,0.20
2015,11,28,11,34,0.20
2015,11,28,11,35,0.20
2015,11,28,11,36,0.20
2015,11,28,11,37,0.20
2015,11,28,11,38,0.30
2015,11,28,11,39,0.30
2015,11,28,11,40,0.30
2015,11,28,11,41,0.30
2015,11,28,11,42,0.30
2015,11,28,11,43,0.30
2015,11,28,11,44,0.40
2015,11,28,11,45,0.40
2015,11,28,11,46,0.40
2015,11,28,11,47,0.40
2015,11,28,11,48,0.50
2015,11,28,11,49,0.50
2015,11,28,11,50,0.50
2015,11,28,11,51,0.50
2015,11,28,11,52,0.50
2015,11,28,11,53,0.50
2015,11,28,11,54,0.40
2015,11,28,11,55,0.40
2015,11,28,11,56,0.40
2015,11,28,11,57,0.40
2015,11,28,11,58,0.40
2015,11,28,11,59,0.40
2015,11,28,12,00,0.40
2015,11,28,12,01,0.40
2015,11,28,12,02,0.40
2015,11,28,12,03,0.40
2015,11,28,12,04,0.40
2015,11,28,12,05,0.50
2015,11,28,12,06,0.50
2015,11,28,12,07,0.60
2015,11,28,12,08,0.60
2015,11,28,12,09,0.70
2015,11,28,12,10,0.70
2015,11,28,12,11,0.70
2015,11,28,12,12,0.70
2015,11,28,12,13,0.70
2015,11,28,12,14,0.60
2015,11,28,12,15,0.60
2015,11,28,12,16,0.60
2015,11,28,12,17,0.60
2015,11,28,12,18,0.50
2015,11,28,12,19,0.50
2015,11,28,12,20,0.50
2015,11,28,12,21,0.50
2015,11,28,12,22,0.60
2015,11,28,12,23,0.60
2015,11,28,12,24,0.60
2015,11,28,12,25,0.70
2015,11,28,12,26,0.70
2015,11,28,12,27,0.70
2015,11,28,12,28,0.70
2015,11,28,12,29,0.70
2015,11,28,12,30,0.70
2015,11,28,12,31,0.70
2015,11,28,12,32,0.70
2015,11,28,12,33,0.70
2015,11,28,12,34,0.70
2015,11,28,12,35,0.70
2015,11,28,12,36,0.80
2015,11,28,12,37,0.80
2015,11,28,12,38,0.80
2015,11,28,12,39,0.80
2015,11,28,12,40,0.80
2015,11,28,12,41,0.70
2015,11,28,12,42,0.70
2015,11,28,12,43,0.70
2015,11,28,12,44,0.70
2015,11,28,12,45,0.70
2015,11,28,12,46,0.60
2015,11,28,12,47,0.60
2015,11,28,12,48,0.50
2015,11,28,12,49,0.50
2015,11,28,12,50,0.50
2015,11,28,12,51,0.50
2015,11,28,12,52,0.50
2015,11,28,12,53,0.50
2015,11,28,12,54,0.60
2015,11,28,12,55,0.60
2015,11,28,12,56,0.60
2015,11,28,12,57,0.70
2015,11,28,12,58,0.70
2015,11,28,12,59,0.70
2015,11,28,13,00,0.70
2015,11,28,13,01,0.70
2015,11,28,13,02,0.70
2015,11,28,13,03,0.80
2015,11,28,13,04,0.80
2015,11,28,13,05,0.80
2015,11,28,13,06,0.80
2015,11,28,13,07,0.90
2015,11,28,13,08,0.90
2015,11,28,13,09,0.90
2015,11,28,13,10,0.90
2015,11,28,13,11,0.90
2015,11,28,13,12,1.00
2015,11,28,13,13,1.00
2015,11,28,13,14,1.00
2015,11,28,13,15,1.00
2015,11,28,13,16,1.10
2015,11,28,13,17,1.10
2015,11,28,13,18,1.10
2015,11,28,13,19,1.20
2015,11,28,13,20,1.20
2015,11,28,13,21,1.20
2015,11,28,13,22,1.20
2015,11,28,13,23,1.20
2015,11,28,13,24,1.20
2015,11,28,13,25,1.20
2015,11,28,13,26,1.30
2015,11,28,13,27,1.30
2015,11,28,13,28,1.40
2015,11,28,13,29,1.40
2015,11,28,13,30,1.50
2015,11,28,13,31,1.60
2015,11,28,13,32,1.60
2015,11,28,13,33,1.60
2015,11,28,13,34,1.70
2015,11,28,13,35,1.70
2015,11,28,13,36,1.80
2015,11,28,13,37,1.80
2015,11,28,13,38,1.80
2015,11,28,13,39,1.80
2015,11,28,13,40,1.80
2015,11,28,13,41,1.80
2015,11,28,13,42,1.80
2015,11,28,13,43,1.80
2015,11,28,13,44,1.70
2015,11,28,13,45,1.70
2015,11,28,13,46,1.70
2015,11,28,13,47,1.70
2015,11,28,13,48,1.70
2015,11,28,13,49,1.70
2015,11,28,13,50,1.70
2015,11,28,13,51,1.70
2015,11,28,13,52,1.70
2015,11,28,13,53,1.70
2015,11,28,13,54,1.80
2015,11,28,13,55,1.80
2015,11,28,13,56,1.80
2015,11,28,13,57,1.90
2015,11,28,13,58,1.90
2015,11,28,13,59,1.90
2015,11,28,14,00,1.90
2015,11,28,14,01,1.90
2015,11,28,14,02,1.90
2015,11,28,14,03,2.00
2015,11,28,14,04,2.00
2015,11,28,14,05,2.00
2015,11,28,14,06,2.00
2015,11,28,14,07,2.00
2015,11,28,14,08,2.00
2015,11,28,14,09,1.90
2015,11,28,14,10,1.90
2015,11,28,14,11,1.90
2015,11,28,14,12,1.90
2015,11,28,14,13,1.80
2015,11,28,14,14,1.90
2015,11,28,14,15,1.90
2015,11,28,14,16,1.90
2015,11,28,14,17,1.90
2015,11,28,14,18,2.00
2015,11,28,14,19,2.10
2015,11,28,14,20,2.10
2015,11,28,14,21,2.20
2015,11,28,14,22,2.20
2015,11,28,14,23,2.20
2015,11,28,14,24,2.10
2015,11,28,14,25,2.10
2015,11,28,14,26,2.00
2015,11,28,14,27,2.00
2015,11,28,14,28,1.90
2015,11,28,14,29,1.90
2015,11,28,14,30,1.80
2015,11,28,14,31,1.80
2015,11,28,14,32,1.80
2015,11,28,14,33,1.80
2015,11,28,14,34,1.80
2015,11,28,14,35,1.80
2015,11,28,14,36,1.70
2015,11,28,14,37,1.70
2015,11,28,14,38,1.70
2015,11,28,14,39,1.70
2015,11,28,14,40,1.70
2015,11,28,14,41,1.70
2015,11,28,14,42,1.70
2015,11,28,14,43,1.70
2015,11,28,14,44,1.70
2015,11,28,14,45,1.70
2015,11,28,14,46,1.70
2015,11,28,14,47,1.60
2015,11,28,14,48,1.60
2015,11,28,14,49,1.60
2015,11,28,14,50,1.60
2015,11,28,14,51,1.50
2015,11,28,14,52,1.50
2015,11,28,14,53,1.50
2015,11,28,14,54,1.50
2015,11,28,14,55,1.50
2015,11,28,14,56,1.60
2015,11,28,14,57,1.60
2015,11,28,14,58,1.60
2015,11,28,14,59,1.70
2015,11,28,15,00,1.70
2015,11,28,15,01,1.80
2015,11,28,15,02,1.80
2015,11,28,15,03,1.80
2015,11,28,15,04,1.80
2015,11,28,15,05,1.90
2015,11,28,15,06,1.90
2015,11,28,15,07,1.90
2015,11,28,15,08,1.90
2015,11,28,15,09,1.90
2015,11,28,15,10,1.90
2015,11,28,15,11,1.90
2015,11,28,15,12,1.90
2015,11,28,15,13,1.90
2015,11,28,15,14,1.90
2015,11,28,15,15,2.00
2015,11,28,15,16,2.00
2015,11,28,15,17,2.00
2015,11,28,15,18,2.00
2015,11,28,15,19,2.00
2015,11,28,15,20,2.00
2015,11,28,15,21,2.10
2015,11,28,15,22,2.10
2015,11,28,15,23,2.10
2015,11,28,15,24,2.10
2015,11,28,15,25,2.10
2015,11,28,15,26,2.10
2015,11,28,15,27,2.20
2015,11,28,15,28,2.20
2015,11,28,15,29,2.20
2015,11,28,15,30,2.10
2015,11,28,15,31,2.10
2015,11,28,15,32,2.10
2015,11,28,15,33,2.10
2015,11,28,15,34,2.10
2015,11,28,15,35,2.10
2015,11,28,15,36,2.20
2015,11,28,15,37,2.20
2015,11,28,15,38,2.20
2015,11,28,15,39,2.20
2015,11,28,15,40,2.20
2015,11,28,15,41,2.20
2015,11,28,15,42,2.20
2015,11,28,15,43,2.20
2015,11,28,15,44,2.20
2015,11,28,15,45,2.20
2015,11,28,15,46,2.20
2015,11,28,15,47,2.20
2015,11,28,15,48,2.30
2015,11,28,15,49,2.30
2015,11,28,15,50,2.30
2015,11,28,15,51,2.30
2015,11,28,15,52,2.30
2015,11,28,15,53,2.30
2015,11,28,15,54,2.30
2015,11,28,15,55,2.40
2015,11,28,15,56,2.40
2015,11,28,15,57,2.40
2015,11,28,15,58,2.50
2015,11,28,15,59,2.50
2015,11,28,16,00,2.50
2015,11,28,16,01,2.50
2015,11,28,16,02,2.50
2015,11,28,16,03,2.50
2015,11,28,16,04,2.40
2015,11,28,16,05,2.40
2015,11,28,16,06,2.40
2015,11,28,16,07,2.40
2015,11,28,16,08,2.30
2015,11,28,16,09,2.30
2015,11,28,16,10,2.30
2015,11,28,16,11,2.30
2015,11,28,16,12,2.20
2015,11,28,16,13,2.20
2015,11,28,16,14,2.10
2015,11,28,16,15,2.10
2015,11,28,16,16,2.00
2015,11,28,16,17,2.00
2015,11,28,16,18,1.90
2015,11,28,16,19,1.90
2015,11,28,16,20,1.80
2015,11,28,16,21,1.80
2015,11,28,16,22,1.80
2015,11,28,16,23,1.70
2015,11,28,16,24,1.70
2015,11,28,16,25,1.70
2015,11,28,16,26,1.70
2015,11,28,16,27,1.60
2015,11,28,16,28,1.60
2015,11,28,16,29,1.60
2015,11,28,16,30,1.70
2015,11,28,16,31,1.70
2015,11,28,16,32,1.70
2015,11,28,16,33,1.70
2015,11,28,16,34,1.70
2015,11,28,16,35,1.70
2015,11,28,16,36,1.80
2015,11,28,16,37,1.80
2015,11,28,16,38,1.70
2015,11,28,16,39,1.70
2015,11,28,16,40,1.70
2015,11,28,16,41,1.70
2015,11,28,16,42,1.70
2015,11,28,16,43,1.70
2015,11,28,16,44,1.60
2015,11,28,16,45,1.60
2015,11,28,16,46,1.60
2015,11,28,16,47,1.60
2015,11,28,16,48,1.60
2015,11,28,16,49,1.50
2015,11,28,16,50,1.50
2015,11,28,16,51,1.50
2015,11,28,16,52,1.50
2015,11,28,16,53,1.50
2015,11,28,16,54,1.60
2015,11,28,16,55,1.60
2015,11,28,16,56,1.60
2015,11,28,16,57,1.60
2015,11,28,16,58,1.70
2015,11,28,16,59,1.70
2015,11,28,17,00,1.70
2015,11,28,17,01,1.70
2015,11,28,17,02,1.60
2015,11,28,17,03,1.60
2015,11,28,17,04,1.60
2015,11,28,17,05,1.50
2015,11,28,17,06,1.50
2015,11,28,17,07,1.40
2015,11,28,17,08,1.40
2015,11,28,17,09,1.40
2015,11,28,17,10,1.40
2015,11,28,17,11,1.30
2015,11,28,17,12,1.30
2015,11,28,17,13,1.30
2015,11,28,17,14,1.20
2015,11,28,17,15,1.20
2015,11,28,17,16,1.10
2015,11,28,17,17,1.10
2015,11,28,17,18,1.10
2015,11,28,17,19,1.10
2015,11,28,17,20,1.00
2015,11,28,17,21,1.00
2015,11,28,17,22,1.00
2015,11,28,17,23,1.00
2015,11,28,17,24,1.00
2015,11,28,17,25,1.00
2015,11,28,17,26,1.00
2015,11,28,17,27,1.00
2015,11,28,17,28,0.90
2015,11,28,17,29,0.90
2015,11,28,17,30,0.90
2015,11,28,17,31,0.90
2015,11,28,17,32,0.90
2015,11,28,17,33,0.90
2015,11,28,17,34,0.90
2015,11,28,17,35,0.90
2015,11,28,17,36,0.90
2015,11,28,17,37,0.90